This demonstration page uses our WeatherBlox Daily Observations layout. Learn more.

38.88101, -77.10428

Hourly Observations for January 7, 2020

Temp ( °F °C ) Dew Point ( °F °C ) Humidity (%) Winds ( mph kmh ) Pressure ( in mb ) Visibility ( mi km ) Precip ( " mm )
12:52 am 00:52 Mostly Clear 38 3.3 24 -4.4 57 57 SSW 5 7 30.14 1021 10 16.0934 0 0
1:52 am 01:52 Mostly Clear 36 2.2 23 -5 59 59 SSW 6 9 30.13 1020 10 16.0934 0 0
2:52 am 02:52 Cloudy 36 2.2 24 -4.4 62 62 Calm 30.13 1020 10 16.0934 0 0
3:52 am 03:52 Cloudy 35 1.7 25 -3.9 67 67 Calm 30.12 1020 10 16.0934 0 0
4:52 am 04:52 Cloudy 35 1.7 25 -3.9 67 67 Calm 30.09 1019 10 16.0934 0 0
5:52 am 05:52 Mostly Cloudy 34 1.1 27 -2.8 76 76 Calm 30.09 1019 10 16.0934 0 0
6:52 am 06:52 Mostly Cloudy 36 2.2 29 -1.7 76 76 ESE 5 7 30.06 1018 10 16.0934 0 0
7:52 am 07:52 Partly Cloudy 35 1.7 28 -2.2 76 76 SW 5 7 30.07 1018 10 16.0934 0 0
8:52 am 08:52 Mostly Cloudy 38 3.3 24 -4.4 57 57 Calm 30.09 1019 10 16.0934 0 0
9:52 am 09:52 Mostly Cloudy 42 5.6 26 -3.3 53 53 Calm 30.07 1018 10 16.0934 0 0
10:52 am 10:52 Mostly Cloudy 45 7.2 22 -5.6 40 40 Calm 30.02 1017 10 16.0934 0 0
11:52 am 11:52 Cloudy 46 7.8 23 -5 40 40 E 10 17 29.95 1014 10 16.0934 0 0
12:52 pm 12:52 Cloudy with Light Rain 46 7.8 27 -2.8 47 47 VRB 7 11 29.91 1013 10 16.0934 0.001 0.001
1:26 pm 13:26 Cloudy with Light Rain 43 6.1 34 1.1 71 71 S 7 11 29.89 1012 5 8.0467 0.001 0.001
1:37 pm 13:37 Cloudy with Light Rain 42 5.6 33 0.6 71 71 VRB 7 11 29.88 1012 5 8.0467 0.001 0.001
1:52 pm 13:52 Cloudy with Light Rain 40 4.4 34 1.1 79 79 ESE 7 11 29.87 1012 6 9.65604 0.01 0.254
2:32 pm 14:32 Cloudy with Light Rain/Snow 37 2.8 34 1.1 89 89 NE 8 13 29.87 1012 5 8.0467 0.05 1.27
2:52 pm 14:52 Cloudy with Light Rain/Snow 36 2.2 34 1.1 93 93 N 6 9 29.88 1012 4 6.43736 0.1 2.54
3:00 pm 15:00 Cloudy with Light Rain/Snow 35 1.7 33 0.6 93 93 N 6 9 29.89 1012 2 3.21868 0.02 0.508
3:05 pm 15:05 Cloudy with Light Snow 35 1.7 33 0.6 93 93 NNE 5 7 29.89 1012 1.75 2.816345 0.03 0.762
3:15 pm 15:15 Cloudy with Light Snow 34 1.1 33 0.6 97 97 NE 8 13 29.88 1012 0.75 1.207005 0.06 1.524
3:33 pm 15:33 Cloudy with Light Snow 33 0.6 33 0.6 100 100 NNE 8 13 29.88 1012 1 1.60934 0.1 2.54
3:41 pm 15:41 Cloudy with Light Snow 33 0.6 33 0.6 100 100 N 6 9 29.88 1012 1.25 2.011675 0.11 2.794
3:52 pm 15:52 Cloudy with Light Snow 34 1.1 33 0.6 97 97 N 7 11 29.89 1012 1.5 2.41401 0.12 3.048
3:57 pm 15:57 Cloudy with Light Snow 34 1.1 33 0.6 97 97 NNW 8 13 29.9 1013 2 3.21868 0.001 0.001
4:02 pm 16:02 Cloudy with Light Snow 34 1.1 33 0.6 97 97 NNW 9 15 29.9 1013 3 4.82802 0.01 0.254
4:13 pm 16:13 Cloudy with Light Snow 34 1.1 33 0.6 97 97 NNW 9 15 29.89 1012 2.5 4.02335 0.02 0.508
4:25 pm 16:25 Cloudy with Light Rain 34 1.1 33 0.6 97 97 NNW 10 17 29.89 1012 3 4.82802 0.03 0.762
4:27 pm 16:27 Cloudy with Light Rain/Snow 34 1.1 33 0.6 97 97 NNW 10 17 29.89 1012 3 4.82802 0.03 0.762
4:52 pm 16:52 Cloudy with Light Rain/Snow 35 1.7 33 0.6 93 93 NNW 13 20 29.91 1013 4 6.43736 0.04 1.016
5:17 pm 17:17 Cloudy with Light Snow 35 1.7 33 0.6 93 93 NNW 14 22 29.93 1014 4 6.43736 0.02 0.508
5:30 pm 17:30 Cloudy with Light Snow 35 1.7 33 0.6 93 93 NW 15 24 29.93 1014 3 4.82802 0.03 0.762
5:52 pm 17:52 Cloudy with Light Snow 35 1.7 33 0.6 93 93 NNW 14 22 29.93 1014 4 6.43736 0.05 1.27
6:19 pm 18:19 Mostly Cloudy with Light Rain 35 1.7 32 0 89 89 NNW 17 28 29.96 1015 10 16.0934 0.001 0.001
6:25 pm 18:25 Mostly Cloudy 35 1.7 32 0 89 89 NNW 17 28 29.95 1014 10 16.0934 0.001 0.001
6:52 pm 18:52 Mostly Cloudy 35 1.7 32 0 89 89 NW 12 19 29.97 1015 10 16.0934 0.001 0.001
7:12 pm 19:12 Mostly Cloudy 36 2.2 32 0 86 86 NW 9 15 30 1016 10 16.0934 0 0
7:52 pm 19:52 Mostly Cloudy 35 1.7 32 0 89 89 NW 8 13 30.01 1016 10 16.0934 0 0
7:54 pm 19:54 Mostly Cloudy 36 2.2 32 0 86 86 NW 9 15 30.01 1016 10 16.0934 0 0
8:52 pm 20:52 Mostly Cloudy 35 1.7 32 0 89 89 W 6 9 30.04 1017 10 16.0934 0 0
8:54 pm 20:54 Mostly Cloudy 35 1.7 32 0 89 89 W 9 15 30.04 1017 10 16.0934 0 0
9:25 pm 21:25 Mostly Cloudy 35 1.7 31 -0.6 85 85 VRB 3 6 30.04 1017 10 16.0934 0 0
9:52 pm 21:52 Mostly Cloudy 34 1.1 31 -0.6 89 89 Calm 30.03 1017 10 16.0934 0 0
10:52 pm 22:52 Clear 33 0.6 30 -1.1 89 89 S 8 13 30.04 1017 10 16.0934 0 0
11:52 pm 23:52 Mostly Clear 32 0 30 -1.1 92 92 SSW 7 11 30.04 1017 10 16.0934 0 0

Powered by AerisWeather